STARLINK-2550, 48293

Orbit data source: Space-Track

STARLINK-2550, 48293 is a payload satellite owned by SpaceX/Seattle (US) in LEO that was launched on Thu, 29 Apr 2021 UTC via an FALCON 9 launch vehicle from the Air Force Eastern Test Range (AFETR). Payload-class satellites include a variety of spacecraft equipped with specific instruments for various scientific and technological missions. These include communications satellites like Starlink; space stations such as the ISS; scientific satellites like the Hubble; Earth observation satellites from companies like Planet Labs, Umbra, and HawkEye 360; GPS; miniature CubeSats for education and research; and military/defense satellites.

Loading next visibility...
Identifier
48293, 2021-036T
Orbit
LEO
Country
Flag of USUS
Related business
Manufacturer
SpaceX/Seattle
Mission
Operational Commercial Communications
Bus & Motor
STARLINK, Unknown motor
Mass
260 kg wet, ~248 kg dry
Launch date (UTC)
2021-04-29 (4 years ago)
Launch vehicle
FALCON 9
Launch site
Air Force Eastern Test Range (AFETR)
Object type
Payload
Rocket body
Debris
Shape & HBR
Box + 1 Pan, 10.1 m
Radar Cross Section
13.562 m², Large (>1 m²)

Expand to show TLE details & history
Last TLE update: 20 hours ago

TLE from 20 hours ago
0 STARLINK-2550
1 48293U 21036T   25294.43219189  .00016231  00000-0  11066-2 0  9996
2 48293  53.0550 346.7683 0001380  89.5145 270.6002 15.06381012247329
Epoch: 2025-10-21T10:22Z
TLE epoch observation values (Epoch: 2025-10-21T10:22:21.379Z)
Latitude
-0.00002°
Longitude
161.05897°
Altitude
548.139 km
Speed
7.589 km/s
True Right ascension
23h 07m 04s
True Declination
0° 00' 00"
Sunlit
Object was in full shadow at epoch
Visualization orbit readout
Latitude
Unknown
Longitude
Unknown
Altitude
Unknown
Speed
Unknown
Apparent Right ascension
Unknown
Apparent Declination
Unknown
Sunlit
N/A
Visualization observer readout
Local Sidereal Time
01:22:13
Azimuth
Unknown
Elevation
Unknown
Doppler factor
Unknown
Orbital elements
Apogee altitude
548.496 km
Perigee altitude
546.585 km
Semi-major axis
6,925.677 km
Eccentricity
0.00014
Inclination
53.055°
RAAN
346.7683°
Arg. of periapsis
89.5145°
True anomaly
270.58439°
Mean anomaly
270.6002°
Eccentric anomaly
270.59229°
Mean motion
3.76574 °/min
Orbital period
95.6 mins
BSTAR
0.0011066
Loading maneuver chart data...
Computing Atmospheric mass density...
Loading historical data...
Loading historical data...
Loading historical data...
Loading historical data...
Loading historical data...
Loading historical data...
Loading historical data...

Documentation

Showing up to 5 results
|